Location: B?dargowo
(53.3916°N, 14.4413°E)
Time: 10:22:10
(UTC+00:00)

S3M - Pass Details

Date: 05 February 2023
Orbit: 948 x 1005 km, 83.0° (Epoch: 19 March)

Event Time Altitude Azimuth Distance (km) Brightness Sun altitude
Rises 17:36:12 0° 168° (SSE) 3,722 7.0 -15.6°
Reaches altitude 10° 17:38:48 10° 164° (SSE) 2,775 6.3 -16.0°
Maximum altitude 17:44:54 50° 91° (E) 1,260 4.2 -16.9°
Drops below altitude 10° 17:51:01 10° 18° (NNE) 2,776 6.2 -17.8°
Sets 17:53:36 0° 14° (NNE) 3,722 6.9 -18.2°
